Terug naar catalogus

DISCO 2

DISCO-2

ActiefAmateurradioSSO
NORAD 68431·PAYLOAD·🇩🇰 Denmark

Gelanceerd Mar 30, 2026 vanaf Vandenberg Space Force Base

Loading…

Volgende Passages (komende 24 uur)

TLE

VersSource: AMSAT

Epoch: Sep 13, 2026, 21:02 UTC

1 68431U 26067R   26256.87646161  .00006908  00000-0  32149-3 0  9998
2 68431  97.4700 214.4749 0003908  66.8999 293.2648 15.20248365 25411

Volg DISCO 2 in realtime met AllMySat

Download on the App Store